• In Kazakhstan
  • List of Countries
  • For 7 days
  • Water Temperature
  • Satellite Maps
  • Weather Map
  • News
  • Weather Widgets
  • user-avatar
    Login

    Hourly Weather Kunkowce

    Today, 20 February, Wednesday

    Time Temperature Precipitation Wind Pressure Humidity
    00:00 +4°C° 0 mm 4 mps 739 mmHg 81%
    01:00 +4°C° 0 mm 4 mps 738 mmHg 83%
    02:00 +3°C° 0 mm 4 mps 738 mmHg 84%
    03:00 +4°C° 0.4 mm 4 mps 738 mmHg 86%
    04:00 +4°C° 0.4 mm 4 mps 739 mmHg 88%
    05:00 +4°C° 0.4 mm 4 mps 739 mmHg 90%
    06:00 +3°C° 0.1 mm 4 mps 739 mmHg 90%
    07:00 +3°C° 0.1 mm 4 mps 739 mmHg 90%
    08:00 +3°C° 0.1 mm 4 mps 739 mmHg 91%
    09:00 +2°C° 0 mm 5 mps 739 mmHg 88%
    10:00 +2°C° 0 mm 5 mps 740 mmHg 84%
    11:00 +3°C° 0 mm 6 mps 740 mmHg 81%
    12:00 +3°C° 0.1 mm 6 mps 740 mmHg 78%
    13:00 +3°C° 0.1 mm 6 mps 740 mmHg 76%
    14:00 +3°C° 0.1 mm 6 mps 741 mmHg 74%
    15:00 +3°C° 0.1 mm 6 mps 741 mmHg 74%
    16:00 +3°C° 0.1 mm 6 mps 741 mmHg 74%
    17:00 +3°C° 0.1 mm 6 mps 741 mmHg 75%
    18:00 +2°C° 0 mm 5 mps 741 mmHg 75%
    19:00 +2°C° 0 mm 5 mps 742 mmHg 76%
    20:00 +2°C° 0 mm 5 mps 742 mmHg 77%
    21:00 +2°C° 0 mm 5 mps 742 mmHg 77%
    22:00 +2°C° 0 mm 5 mps 743 mmHg 77%
    23:00 +2°C° 0 mm 5 mps 743 mmHg 77%

    Tomorrow, 21 February, Thursday

    Time Temperature Precipitation Wind Pressure Humidity
    00:00 +3°C° 0 mm 4 mps 743 mmHg 78%
    01:00 +1°C° 0 mm 4 mps 743 mmHg 79%
    02:00 +1°C° 0 mm 4 mps 744 mmHg 81%
    03:00 +1°C° 0 mm 4 mps 744 mmHg 82%
    04:00 +1°C° 0 mm 4 mps 744 mmHg 84%
    05:00 +1°C° 0 mm 4 mps 744 mmHg 85%
    06:00 +1°C° 0 mm 4 mps 744 mmHg 85%
    07:00 +1°C° 0 mm 4 mps 744 mmHg 86%
    08:00 +1°C° 0 mm 4 mps 744 mmHg 86%
    09:00 +3°C° 0 mm 4 mps 744 mmHg 82%
    10:00 +3°C° 0 mm 5 mps 744 mmHg 79%
    11:00 +3°C° 0 mm 5 mps 744 mmHg 75%
    12:00 +5°C° 0 mm 5 mps 744 mmHg 72%
    13:00 +6°C° 0 mm 5 mps 743 mmHg 69%
    14:00 +7°C° 0 mm 5 mps 743 mmHg 65%
    15:00 +6°C° 0.3 mm 5 mps 742 mmHg 68%
    16:00 +6°C° 0.3 mm 5 mps 742 mmHg 71%
    17:00 +5°C° 0.3 mm 4 mps 741 mmHg 74%
    18:00 +5°C° 0.8 mm 5 mps 741 mmHg 77%
    19:00 +5°C° 0.8 mm 5 mps 741 mmHg 79%
    20:00 +3°C° 0.8 mm 5 mps 741 mmHg 81%
    21:00 +3°C° 0.5 mm 5 mps 741 mmHg 83%
    22:00 +3°C° 0.5 mm 5 mps 741 mmHg 84%
    23:00 +3°C° 0.5 mm 6 mps 740 mmHg 86%

    Day after tomorrow, 22 February, Friday

    Time Temperature Precipitation Wind Pressure Humidity
    00:00 +3°C° 0.4 mm 5 mps 740 mmHg 87%
    01:00 +3°C° 0.4 mm 5 mps 740 mmHg 88%
    02:00 +3°C° 0.4 mm 5 mps 740 mmHg 89%
    03:00 +3°C° 0.6 mm 5 mps 739 mmHg 90%
    04:00 +3°C° 0.6 mm 5 mps 739 mmHg 91%
    05:00 +5°C° 0.6 mm 5 mps 739 mmHg 92%
    06:00 +3°C° 1.1 mm 5 mps 739 mmHg 92%
    07:00 +3°C° 1.1 mm 5 mps 740 mmHg 92%
    08:00 +2°C° 1.1 mm 6 mps 740 mmHg 92%
    09:00 -1°C° 0.7 mm 6 mps 741 mmHg 89%
    10:00 -2°C° 0.7 mm 6 mps 742 mmHg 87%
    11:00 -4°C° 0.7 mm 6 mps 743 mmHg 85%
    12:00 -4°C° 0.1 mm 6 mps 744 mmHg 79%
    13:00 -4°C° 0.1 mm 6 mps 746 mmHg 72%
    14:00 -4°C° 0.1 mm 6 mps 747 mmHg 66%
    15:00 -4°C° 0 mm 6 mps 747 mmHg 66%
    16:00 -5°C° 0 mm 6 mps 748 mmHg 65%
    17:00 -6°C° 0 mm 6 mps 749 mmHg 65%
    18:00 -6°C° 0 mm 6 mps 749 mmHg 65%
    19:00 -7°C° 0 mm 5 mps 750 mmHg 64%
    20:00 -8°C° 0 mm 5 mps 751 mmHg 64%
    21:00 -8°C° 0 mm 5 mps 752 mmHg 62%
    22:00 -8°C° 0 mm 5 mps 752 mmHg 59%
    23:00 -8°C° 0 mm 5 mps 753 mmHg 57%

    23 February, Saturday

    Time Temperature Precipitation Wind Pressure Humidity
    00:00 -8°C° 0 mm 5 mps 753 mmHg 55%
    01:00 -8°C° 0 mm 4 mps 754 mmHg 53%
    02:00 -8°C° 0 mm 4 mps 754 mmHg 51%
    03:00 -8°C° 0 mm 4 mps 754 mmHg 51%
    04:00 -8°C° 0 mm 4 mps 754 mmHg 50%
    05:00 -8°C° 0 mm 4 mps 754 mmHg 50%
    06:00 -8°C° 0 mm 4 mps 755 mmHg 51%
    07:00 -8°C° 0 mm 4 mps 755 mmHg 52%
    08:00 -7°C° 0 mm 3 mps 755 mmHg 53%
    09:00 -8°C° 0 mm 4 mps 755 mmHg 50%
    10:00 -7°C° 0 mm 4 mps 755 mmHg 47%
    11:00 -5°C° 0 mm 4 mps 755 mmHg 43%
    12:00 -4°C° 0 mm 4 mps 755 mmHg 40%
    13:00 -4°C° 0 mm 4 mps 755 mmHg 36%
    14:00 -4°C° 0 mm 5 mps 755 mmHg 33%
    15:00 -3°C° 0 mm 4 mps 755 mmHg 34%
    16:00 -3°C° 0 mm 4 mps 755 mmHg 34%
    17:00 -3°C° 0 mm 4 mps 755 mmHg 35%
    18:00 -4°C° 0 mm 3 mps 755 mmHg 39%
    19:00 -5°C° 0 mm 3 mps 755 mmHg 43%
    20:00 -4°C° 0 mm 2 mps 755 mmHg 47%
    21:00 -4°C° 0 mm 2 mps 755 mmHg 47%
    22:00 -5°C° 0 mm 2 mps 755 mmHg 48%
    23:00 -3°C° 0 mm 1 mps 755 mmHg 48%

    24 February, Sunday

    Time Temperature Precipitation Wind Pressure Humidity
    00:00 -3°C° 0 mm 1 mps 755 mmHg 49%
    01:00 -3°C° 0 mm 1 mps 755 mmHg 49%
    02:00 -3°C° 0 mm 1 mps 754 mmHg 49%
    03:00 -5°C° 0 mm 2 mps 754 mmHg 50%
    04:00 -5°C° 0 mm 2 mps 754 mmHg 50%
    05:00 -5°C° 0 mm 2 mps 753 mmHg 50%
    06:00 -5°C° 0 mm 2 mps 753 mmHg 49%
    07:00 -5°C° 0 mm 2 mps 753 mmHg 49%
    08:00 -5°C° 0 mm 2 mps 753 mmHg 48%
    09:00 -4°C° 0 mm 2 mps 752 mmHg 45%
    10:00 -4°C° 0 mm 3 mps 752 mmHg 42%
    11:00 -2°C° 0 mm 3 mps 752 mmHg 39%
    12:00 -1°C° 0 mm 3 mps 752 mmHg 39%
    13:00 -1°C° 0 mm 3 mps 751 mmHg 39%
    14:00 0°C° 0 mm 3 mps 751 mmHg 39%
    15:00 +1°C° 0 mm 2 mps 750 mmHg 41%
    16:00 +1°C° 0 mm 2 mps 750 mmHg 43%
    17:00 +2°C° 0 mm 1 mps 750 mmHg 45%
    18:00 +2°C° 0 mm 1 mps 750 mmHg 48%
    19:00 +1°C° 0 mm 1 mps 750 mmHg 51%
    20:00 +1°C° 0 mm 1 mps 750 mmHg 54%
    21:00 +1°C° 0 mm 1 mps 750 mmHg 59%
    22:00 +1°C° 0 mm 1 mps 750 mmHg 63%
    23:00 0°C° 0 mm 1 mps 750 mmHg 67%

    25 February, Monday

    Time Temperature Precipitation Wind Pressure Humidity
    00:00 0°C° 0 mm 1 mps 750 mmHg 71%
    01:00 0°C° 0 mm 1 mps 750 mmHg 75%
    02:00 0°C° 0 mm 1 mps 750 mmHg 79%
    03:00 0°C° 0 mm 1 mps 750 mmHg 81%
    04:00 0°C° 0 mm 1 mps 750 mmHg 82%
    05:00 0°C° 0 mm 1 mps 749 mmHg 84%
    06:00 0°C° 0 mm 1 mps 749 mmHg 86%
    07:00 0°C° 0 mm 1 mps 749 mmHg 87%
    08:00 0°C° 0 mm 1 mps 749 mmHg 88%
    09:00 +1°C° 0 mm 1 mps 749 mmHg 84%
    10:00 +2°C° 0 mm 1 mps 749 mmHg 79%
    11:00 +2°C° 0 mm 2 mps 749 mmHg 75%
    12:00 +2°C° 0 mm 2 mps 749 mmHg 74%
    13:00 +3°C° 0 mm 2 mps 749 mmHg 72%
    14:00 +3°C° 0 mm 3 mps 748 mmHg 71%
    15:00 +4°C° 0 mm 2 mps 748 mmHg 72%
    16:00 +4°C° 0 mm 2 mps 748 mmHg 73%
    17:00 +3°C° 0 mm 2 mps 747 mmHg 73%
    18:00 +3°C° 0 mm 2 mps 748 mmHg 78%
    19:00 +2°C° 0 mm 2 mps 748 mmHg 83%
    20:00 0°C° 0 mm 3 mps 748 mmHg 87%
    21:00 0°C° 0 mm 3 mps 748 mmHg 90%
    22:00 -1°C° 0 mm 3 mps 748 mmHg 93%
    23:00 -1°C° 0 mm 3 mps 748 mmHg 96%
    Show more